Tracking 35035 objects as of 16-Aug-2026
HD Live streaming from Space Station
objects crossing your sky now

FENGYUN 1D

Track FENGYUN 1D now!
10-day predictions
FENGYUN 1D is classified as:


NORAD ID: 27431
Int'l Code: 2002-024B
Launch date: May 15, 2002
Source: People's Republic of China (PRC)
Launch site: Taiyaun Space Center, China (TSC)

Polar-orbiting satellite; carries Multichannel Visible and Infrared Scan Radiometer (MVISR); means "wind and cloud."
Your satellite tracking list
Your tracking list is empty




NASA's NSSDC Master Catalog

Two Line Element Set (TLE):
1 27431U 02024B   26228.38471207 -.00000069  00000-0 -13811-4 0  9992
2 27431  98.9476 278.4265 0016363  74.9573 285.3407 14.10231017247967
Source of the keplerian elements: AFSPC